Location: Peterborough
(44.3091°N, 78.3197°W)
Time: 05:02:49
(UTC-04:00)

Transit 2A - Visible Passes

Search period start: 02 April 2023 00:00
Search period end: 12 April 2023 00:00
Orbit: 591 x 964 km, 66.7° (Epoch: 01 April)

Date Brightness Start Highest point End Pass type
(mag) Time Alt. Az. Time Alt. Az. Time Alt. Az.
02 Apr 8.4 02:57:50 17° E 02:57:50 17° E 03:00:51 10° ENE visible
02 Apr 6.1 04:38:17 55° SW 04:39:35 80° WNW 04:45:42 10° NNE visible
02 Apr 7.9 06:19:39 10° W 06:23:52 20° NW 06:28:20 10° NNE visible
03 Apr 8.8 02:24:15 10° E 02:24:15 10° E 02:24:27 10° E visible
03 Apr 6.2 04:04:42 73° SE 04:04:58 74° ESE 04:11:02 10° NE visible
03 Apr 7.6 05:45:09 14° W 05:48:53 25° NW 05:53:55 10° NNE visible
04 Apr 6.8 03:31:04 50° E 03:31:04 50° E 03:36:16 10° NE visible
04 Apr 7.3 05:11:31 24° W 05:13:58 32° NW 05:19:26 10° NNE visible
05 Apr 7.6 02:57:23 32° E 02:57:23 32° E 03:01:24 10° NE visible
05 Apr 6.8 04:37:50 37° W 04:39:06 42° NW 04:44:56 10° NNE visible
06 Apr 8.2 02:23:40 21° ENE 02:23:40 21° ENE 02:26:21 10° NE visible
06 Apr 6.4 04:04:06 57° WNW 04:04:19 57° NW 04:10:22 10° NNE visible
06 Apr 8.3 05:45:21 10° WNW 05:48:59 16° NNW 05:52:46 10° N visible
07 Apr 8.7 01:49:54 13° ENE 01:49:54 13° ENE 01:51:00 10° ENE visible
07 Apr 6.4 03:30:20 67° N 03:30:20 67° N 03:35:46 10° NNE visible
07 Apr 8.0 05:10:47 14° WNW 05:13:55 20° NW 05:18:23 10° NNE visible
08 Apr 7.0 02:56:32 50° NE 02:56:32 50° NE 03:01:05 10° NE visible
08 Apr 7.7 04:36:59 21° WNW 04:38:55 25° NW 04:43:57 10° NNE visible
09 Apr 7.6 02:22:42 34° ENE 02:22:42 34° ENE 02:26:20 10° NE visible
09 Apr 7.3 04:03:08 31° WNW 04:03:58 32° NW 04:09:28 10° NNE visible
09 Apr 8.6 05:47:26 10° NW 05:49:20 11° NNW 05:51:15 10° N visible
10 Apr 8.1 01:48:49 24° ENE 01:48:49 24° ENE 01:51:28 10° NE visible
10 Apr 7.0 03:29:16 42° NW 03:29:16 42° NW 03:34:58 10° NNE visible
10 Apr 8.5 05:11:16 10° NW 05:14:08 13° NNW 05:17:06 10° N visible
11 Apr 8.5 01:14:56 16° ENE 01:14:56 16° ENE 01:16:26 10° NE visible
11 Apr 7.0 02:55:21 49° NNW 02:55:21 49° NNW 03:00:24 10° NNE visible
11 Apr 8.4 04:35:47 11° WNW 04:39:00 16° NNW 04:42:47 10° N visible
